AG4OX Weather Reports


Display with metric or nautical units.
time (UTC)temp
F
wind
direction
speed
MPH
gust
MPH
rain 1hr
in
rain 24hr
in
rain mn
in
humidity
%
barometer
mb
20260906194006 95 269 3.0 10.0 0.00 0.00 0.00 51 1009.1
20260906193007 95 250 3.0 9.0 0.00 0.00 0.00 52 1009.2
20260906192007 93 180 3.0 10.0 0.00 0.00 0.00 56 1009.3
20260906191006 94 235 4.0 7.0 0.00 0.00 0.00 53 1009.5
20260906185006 92 190 3.0 7.0 0.00 0.00 0.00 57 1009.8
20260906184005 92 296 3.0 6.0 0.00 0.00 0.00 61 1010.0
20260906182005 92 252 2.0 9.0 0.00 0.00 0.00 59 1010.1
20260906180005 91 303 6.0 10.0 0.00 0.00 0.00 61 1010.3
20260906175006 91 342 1.0 8.0 0.00 0.00 0.00 63 1010.2
20260906173006 90 267 5.0 12.0 0.00 0.00 0.00 65 1010.4
20260906171006 90 295 5.0 9.0 0.00 0.00 0.00 65 1010.5
20260906170005 90 236 3.0 9.0 0.00 0.00 0.00 66 1010.7
20260906165006 89 266 5.0 8.0 0.00 0.00 0.00 65 1010.8
20260906164005 89 286 5.0 8.0 0.00 0.00 0.00 69 1011.0
20260906163007 89 319 3.0 7.0 0.00 0.00 0.00 67 1010.9
20260906161006 89 287 3.0 6.0 0.00 0.00 0.00 70 1011.3
20260906160005 87 282 3.0 12.0 0.00 0.00 0.00 70 1011.4
20260906155006 87 279 6.0 9.0 0.00 0.00 0.00 73 1011.6
20260906154005 87 299 4.0 9.0 0.00 0.00 0.00 73 1011.6
20260906152006 86 234 3.0 9.0 0.00 0.00 0.00 76 1011.7
20260906151007 85 255 5.0 10.0 0.00 0.00 0.00 77 1011.9
20260906145006 85 270 3.0 7.0 0.00 0.00 0.00 78 1011.9
20260906144006 85 265 4.0 9.0 0.00 0.00 0.00 80 1011.9
20260906143006 84 314 3.0 6.0 0.00 0.00 0.00 80 1011.9
20260906142006 83 321 2.0 6.0 0.00 0.00 0.00 82 1011.8
20260906141005 83 288 2.0 6.0 0.00 0.00 0.00 83 1011.6
20260906140005 82 231 2.0 6.0 0.00 0.00 0.00 83 1011.6
20260906135005 82 234 3.0 5.0 0.00 0.00 0.00 83 1011.8
20260906134005 82 260 2.0 5.0 0.00 0.00 0.00 83 1011.8
20260906133006 81 191 1.0 6.0 0.00 0.00 0.00 83 1011.9
20260906132007 80 272 2.0 6.0 0.00 0.00 0.00 83 1011.9
20260906124006 78 274 2.0 5.0 0.00 0.00 0.00 81 1011.9
20260906123006 77 238 2.0 3.0 0.00 0.00 0.00 80 1011.9
20260906122006 76 246 1.0 3.0 0.00 0.00 0.00 79 1011.6
20260906121007 75 241 1.0 3.0 0.00 0.00 0.00 75 1011.6
20260906120005 75 215 0.0 2.0 0.00 0.00 0.00 74 1011.6
20260906115006 74 215 0.0 3.0 0.00 0.00 0.00 73 1011.5
20260906114007 74 221 0.0 1.0 0.00 0.00 0.00 73 1011.5
20260906113006 74 221 0.0 0.0 0.00 0.00 0.00 73 1011.4
20260906112006 74 221 0.0 1.0 0.00 0.00 0.00 73 1011.2
20260906111005 74 221 0.0 1.0 0.00 0.00 0.00 74 1011.2
20260906110005 74 221 0.0 1.0 0.00 0.00 0.00 74 1010.9
20260906104007 74 296 1.0 2.0 0.00 0.00 0.00 73 1010.5
20260906103005 74 296 1.0 2.0 0.00 0.00 0.00 74 1010.3
20260906101006 74 296 0.0 2.0 0.00 0.00 0.00 74 1010.0
20260906100005 74 296 0.0 0.0 0.00 0.00 0.00 76 1010.0
20260906095007 74 296 0.0 1.0 0.00 0.00 0.00 75 1010.0
20260906094005 74 296 0.0 2.0 0.00 0.00 0.00 75 1009.9
20260906093005 74 296 0.0 2.0 0.00 0.00 0.00 76 1009.8
20260906092007 74 296 0.0 2.0 0.00 0.00 0.00 77 1009.6
20260906091006 74 296 1.0 2.0 0.00 0.00 0.00 77 1009.4
20260906090006 74 297 1.0 3.0 0.00 0.00 0.00 77 1009.4
20260906084007 74 254 0.0 2.0 0.00 0.00 0.00 76 1009.4
20260906083007 74 269 0.0 2.0 0.00 0.00 0.00 76 1009.4
20260906082005 75 274 0.0 3.0 0.00 0.00 0.00 76 1009.4
20260906081006 75 279 0.0 1.0 0.00 0.00 0.00 76 1009.8
20260906075007 75 298 0.0 2.0 0.00 0.00 0.00 75 1009.4
20260906074006 75 263 1.0 3.0 0.00 0.00 0.00 75 1009.4
20260906073007 75 277 0.0 3.0 0.00 0.00 0.00 75 1009.4
20260906072006 75 254 1.0 2.0 0.00 0.00 0.00 75 1009.7
20260906071005 75 254 0.0 1.0 0.00 0.00 0.00 78 1010.0
20260906070006 75 254 0.0 0.0 0.00 0.00 0.00 79 1010.2
20260906065007 75 254 0.0 1.0 0.00 0.00 0.00 79 1010.3
20260906064007 75 193 0.0 1.0 0.00 0.00 0.00 79 1010.3
20260906063006 75 228 1.0 2.0 0.00 0.00 0.00 79 1010.3
20260906062006 75 236 0.0 3.0 0.00 0.00 0.00 80 1010.8
20260906061005 75 225 1.0 3.0 0.00 0.00 0.00 80 1010.9
20260906060005 75 239 1.0 3.0 0.00 0.00 0.00 80 1011.0
20260906054005 75 205 0.0 2.0 0.00 0.00 0.00 81 1011.2
20260906053006 75 156 0.0 2.0 0.00 0.00 0.00 80 1011.2
20260906044006 76 169 0.0 2.0 0.00 0.00 0.00 74 1011.4
20260906043007 76 212 0.0 1.0 0.00 0.00 0.00 74 1011.4
20260906042006 76 212 0.0 1.0 0.00 0.00 0.00 74 1011.4
20260906041005 76 212 1.0 2.0 0.00 0.00 0.00 73 1011.4
20260906035006 76 265 1.0 2.0 0.00 0.00 0.00 75 1011.3
20260906033006 75 268 1.0 2.0 0.00 0.00 0.00 77 1011.3
20260906032007 75 219 0.0 2.0 0.00 0.00 0.00 77 1011.2
20260906031006 75 219 0.0 1.0 0.00 0.00 0.00 78 1011.2
20260906024007 75 212 2.0 3.0 0.00 0.00 0.00 79 1011.4
20260906023005 76 197 1.0 3.0 0.00 0.00 0.00 80 1011.6
20260906022006 76 212 1.0 2.0 0.00 0.00 0.00 78 1011.8
20260906021006 76 73 0.0 1.0 0.00 0.00 0.00 80 1011.7
20260906020005 75 73 1.0 2.0 0.00 0.00 0.00 81 1011.8
20260906015006 75 211 0.0 0.0 0.00 0.00 0.00 82 1011.8
20260906014005 75 184 0.0 0.0 0.00 0.00 0.00 81 1011.7
20260906013006 75 114 0.0 0.0 0.00 0.00 0.00 82 1011.6
20260906012006 75 136 0.0 2.0 0.00 0.00 0.00 82 1011.7
20260906011006 75 123 1.0 3.0 0.00 0.00 0.00 81 1011.7
20260906010005 75 109 1.0 3.0 0.00 0.00 0.00 81 1011.7
20260906005006 74 166 2.0 3.0 0.00 0.00 0.00 81 1011.8
20260906004006 74 218 0.0 2.0 0.00 0.00 0.00 82 1011.8
20260906003006 74 180 0.0 2.0 0.00 0.00 0.00 82 1011.5
20260906002006 74 180 1.0 2.0 0.00 0.00 0.00 82 1011.5
20260906001006 74 157 1.0 2.0 0.00 0.00 0.00 83 1011.5
20260906000005 74 121 1.0 3.0 0.00 0.00 0.00 83 1011.4
20260905235006 75 86 1.0 2.0 0.00 0.00 0.00 84 1011.1
20260905233005 76 176 0.0 3.0 0.00 0.00 0.00 83 1011.7
20260905232006 77 20 2.0 5.0 0.00 0.00 0.00 81 1012.2
20260905231006 78 42 3.0 17.0 0.00 0.00 0.00 79 1012.0
20260905230006 80 329 6.0 18.0 0.00 0.00 0.00 77 1011.9
20260905225006 81 338 10.0 15.0 0.00 0.00 0.00 74 1011.9
20260905224006 83 5 3.0 7.0 0.00 0.00 0.00 74 1011.7
20260905223007 84 77 3.0 7.0 0.00 0.00 0.00 72 1011.0
20260905222006 85 93 6.0 12.0 0.00 0.00 0.00 72 1010.6
20260905221006 85 92 3.0 12.0 0.00 0.00 0.00 70 1010.5
20260905220005 85 88 5.0 12.0 0.00 0.00 0.00 65 1009.9
20260905215006 85 108 6.0 12.0 0.00 0.00 0.00 69 1009.8
20260905214006 87 101 6.0 12.0 0.00 0.00 0.00 69 1009.8
20260905213005 87 83 3.0 6.0 0.00 0.00 0.00 68 1009.8
20260905212006 86 75 3.0 6.0 0.00 0.00 0.00 69 1009.9
20260905211006 86 146 4.0 12.0 0.00 0.00 0.00 69 1010.4
20260905205005 86 104 7.0 15.0 0.00 0.00 0.00 75 1010.8
20260905204007 87 83 10.0 16.0 0.00 0.00 0.00 68 1010.9
20260905203006 91 61 6.0 12.0 0.00 0.00 0.00 70 1010.3
20260905202006 93 92 6.0 12.0 0.00 0.00 0.00 67 1010.2
20260905201007 93 349 4.0 10.0 0.00 0.00 0.00 60 1010.2
20260905200005 92 300 3.0 6.0 0.00 0.00 0.00 61 1010.0
20260905195007 92 299 2.0 9.0 0.00 0.00 0.00 61 1010.2